QPF
0.00 0.00 0.00 0.00 0.00 -0.00 0.00 -0.00 0.00 0.00 0.00 0.00 0.00 0.00 0.00 0.00 0.00 0.00 0.00 -0.00 -0.00 0.00 0.02 0.02 0.00 0.01 0.04 0.08 0.24 0.46 0.59 0.45 0.28 0.19 0.09 0.07 0.00 0.00 0.00 0.00 0.00 0.00 0.00 0.00 0.00 0.00 0.00 0.00 0.00 0.00 0.00 0.00 0.00 0.00 -0.00 0.00 0.00 0.00 0.00 0.00 0.00 0.00 0.00
0.00 0.00 0.00 0.00 0.00 0.00 0.00 0.00 0.00 0.00 0.00 0.00 0.00 0.00 0.00 0.00 0.00 0.00 0.00 0.00 -0.00 0.00 0.00 0.01 0.01 0.01 0.02 0.04 0.07 0.18 0.34 0.51 0.57 0.36 0.17 0.14 0.09 0.06 0.00 0.00 0.00 0.00 0.00 0.00 0.00 0.00 0.00 0.00 0.00 0.00 0.00 0.00 0.00 0.00 0.00 -0.00 -0.00 0.00 0.00 0.00 0.00 0.00 0.00
0.00 0.00 0.00 0.00 0.00 -0.00 0.00 0.00 0.00 -0.00 0.00 0.00 0.00 0.00 0.00 0.00 0.00 0.00 0.00 0.00 -0.00 0.00 0.00 0.00 0.00 0.01 0.03 0.03 0.05 0.04 0.11 0.20 0.34 0.38 0.35 0.37 0.36 0.26 0.02 0.00 0.00 0.00 0.00 0.00 0.00 0.00 0.00 0.00 0.00 0.00 0.00 0.00 0.00 0.00 0.00 0.00 0.00 0.00 0.00 0.00 0.00 0.00 -0.00
0.00 0.00 0.00 0.00 0.00 0.00 0.00 0.00 -0.00 0.00 0.00 0.00 0.00 0.00 0.00 0.00 0.00 0.00 0.00 0.00 0.00 0.00 -0.00 0.00 0.00 0.00 0.01 0.02 0.03 0.06 0.06 0.08 0.11 0.26 0.29 0.29 0.27 0.17 0.15 0.03 0.00 0.01 0.01 0.00 0.00 0.00 0.00 0.00 0.00 0.00 0.00 0.00 0.00 0.00 0.00 0.00 0.00 0.00 0.00 0.00 0.00 -0.00 0.00
0.00 -0.00 0.00 0.00 0.00 0.00 0.00 0.00 0.00 0.00 0.00 0.00 0.00 0.00 0.00 0.00 0.00 0.00 0.00 0.00 0.00 -0.00 0.00 0.00 0.00 0.00 0.00 0.03 0.02 0.03 0.03 0.05 0.05 0.08 0.14 0.20 0.25 0.23 0.28 0.07 0.04 0.02 0.01 0.01 0.00 0.00 0.00 0.00 0.00 0.00 0.00 0.00 0.00 0.00 0.00 0.00 0.00 0.00 0.00 0.00 0.00 0.00 0.00
-0.00 0.00 0.00 0.00 0.00 0.00 0.00 0.00 0.00 0.00 0.00 0.00 0.00 0.00 0.00 0.00 0.00 0.00 0.00 0.00 0.00 -0.00 -0.00 -0.00 0.00 0.00 -0.00 0.00 0.02 0.04 0.04 0.07 0.02 0.02 0.08 0.16 0.22 0.18 0.20 0.25 0.10 0.05 0.02 0.01 0.00 0.00 0.00 0.00 0.00 0.01 0.00 0.00 0.00 0.00 0.00 0.00 0.00 0.00 0.00 0.00 0.00 0.00 0.00
-0.00 0.00 0.00 0.00 0.00 0.00 0.00 0.00 0.00 0.00 0.00 0.00 0.00 0.00 0.00 0.00 0.00 0.00 0.00 0.00 0.00 0.00 0.00 -0.00 0.00 0.00 -0.00 -0.00 0.00 0.02 0.10 0.05 0.02 0.03 0.02 0.03 0.07 0.08 0.12 0.16 0.12 0.11 0.06 0.03 0.01 0.03 0.01 0.01 0.02 0.01 0.00 0.00 0.00 0.00 0.00 0.00 0.00 0.00 0.00 0.00 0.00 0.00 0.00
0.00 -0.00 0.00 0.00 0.00 0.00 0.00 0.00 0.00 0.00 0.00 0.00 0.00 0.00 0.00 0.00 0.00 0.00 0.00 0.00 0.00 0.00 0.00 0.00 -0.00 0.00 0.00 0.00 0.00 0.00 0.02 0.03 0.06 0.04 0.03 0.04 0.02 0.06 0.17 0.21 0.10 0.16 0.26 0.07 0.07 0.03 0.01 0.00 0.01 0.01 0.00 0.00 0.00 0.00 0.00 0.00 0.00 0.00 0.00 0.00 0.00 0.00 0.00
0.00 0.00 0.00 0.00 0.00 0.00 0.00 0.00 0.00 0.00 0.00 0.00 0.00 0.00 0.00 0.00 0.00 0.00 0.00 0.00 0.00 0.00 0.00 0.00 0.00 0.00 0.00 0.00 0.00 0.00 0.00 0.00 0.03 0.07 0.05 0.05 0.05 0.02 0.03 0.14 0.23 0.14 0.14 0.17 0.11 0.08 0.05 0.01 0.00 0.01 0.01 0.01 0.00 0.00 0.00 0.00 0.00 0.00 0.00 0.00 0.00 0.00 0.00
0.00 -0.00 0.00 0.00 0.00 0.00 -0.00 0.00 0.00 0.00 0.00 0.00 0.00 0.00 0.00 0.00 0.00 0.00 0.00 0.01 0.01 0.00 0.00 0.00 0.00 0.00 0.00 0.00 0.00 0.00 0.00 0.00 0.01 0.02 0.07 0.07 0.06 0.03 0.02 0.02 0.04 0.11 0.29 0.25 0.10 0.15 0.16 0.14 0.03 0.01 0.01 0.00 0.00 0.00 0.00 0.00 0.00 -0.00 0.01 -0.00 0.00 0.00 0.00
-0.00 0.00 0.00 0.00 0.00 0.00 0.00 0.00 0.00 0.00 0.00 0.00 0.00 0.00 0.00 0.00 0.00 0.00 0.00 0.00 0.00 0.00 0.00 0.00 0.00 0.00 0.00 0.00 0.00 0.00 0.00 0.00 0.01 0.01 0.02 0.04 0.05 0.03 0.03 0.03 0.01 0.02 0.04 0.15 0.30 0.22 0.18 0.13 0.11 0.03 0.01 0.00 0.00 0.00 0.00 0.00 0.00 0.00 0.00 0.00 0.00 0.00 0.00
0.00 0.00 0.00 0.00 0.00 0.00 0.00 0.00 0.00 0.00 0.00 0.00 0.00 0.00 0.00 0.00 0.00 0.00 0.00 0.00 0.00 0.00 0.00 0.00 0.00 0.00 0.00 0.00 0.00 0.00 0.00 0.00 0.00 0.01 0.06 0.03 0.01 0.02 0.05 0.03 0.03 0.02 0.01 0.02 0.12 0.18 0.20 0.15 0.14 0.09 0.09 0.01 0.00 0.00 0.00 0.00 0.00 0.00 0.00 0.00 0.00 0.00 0.00
-0.00 0.00 0.00 0.00 0.00 0.00 0.00 0.00 0.00 -0.00 0.00 -0.00 0.00 0.00 0.00 0.00 0.00 0.00 0.00 0.00 0.00 0.00 0.00 0.00 0.00 0.00 0.00 0.00 0.00 -0.00 0.00 0.00 0.00 0.00 0.00 0.03 0.07 0.03 0.03 0.04 0.05 0.03 0.02 0.04 0.08 0.14 0.13 0.23 0.18 0.15 0.09 0.05 0.00 0.00 0.00 0.00 0.00 0.00 0.01 0.00 0.00 0.00 0.00
-0.00 0.00 -0.00 0.00 0.00 0.00 0.00 0.00 0.00 0.00 0.00 0.00 0.00 0.00 0.00 0.00 0.00 0.00 0.00 0.00 0.00 0.00 0.00 0.00 0.00 0.00 0.00 0.00 0.00 0.00 0.00 0.00 0.00 0.00 0.00 0.00 0.01 0.05 0.03 0.03 0.03 0.05 0.02 0.05 0.08 0.12 0.09 0.12 0.10 0.14 0.07 0.08 0.02 0.00 0.00 0.00 0.00 0.00 0.03 0.01 0.00 0.00 0.00
0.00 0.00 0.00 0.00 0.00 0.00 0.00 0.00 0.00 0.00 0.00 0.00 0.00 0.00 0.00 0.00 0.00 0.00 0.00 0.00 0.00 0.00 0.00 0.00 0.00 0.00 0.00 0.00 0.00 0.00 0.00 0.00 0.00 0.00 0.00 0.00 0.00 0.01 0.04 0.04 0.03 0.03 0.02 0.02 0.11 0.15 0.08 0.23 0.15 0.05 0.10 0.13 0.04 0.01 0.00 0.00 0.01 0.01 0.01 0.01 0.00 0.00 0.00
-0.00 -0.00 0.00 0.00 0.00 0.00 0.00 0.00 0.00 0.00 0.00 0.00 0.00 0.00 0.00 0.00 0.00 0.00 0.00 0.00 0.00 0.00 0.00 0.00 0.00 0.00 0.00 0.00 0.00 0.00 0.00 0.00 0.00 0.00 0.00 0.00 0.00 0.00 0.02 0.07 0.04 0.04 0.01 0.01 0.02 0.02 0.04 0.06 0.09 0.09 0.09 0.06 0.07 0.01 0.00 0.00 0.00 0.02 0.02 0.00 0.00 0.00 0.00
0.00 0.00 -0.00 0.00 0.00 0.00 0.00 0.00 0.00 0.00 0.00 0.00 0.00 0.00 0.00 0.00 0.00 0.00 0.00 0.00 0.00 0.00 0.00 0.00 0.00 0.00 0.00 0.00 0.00 0.00 0.00 0.00 0.00 0.00 0.00 0.00 0.00 0.00 0.01 0.01 0.04 0.03 0.06 0.07 0.05 0.02 0.04 0.06 0.05 0.07 0.06 0.06 0.03 0.01 0.00 0.01 0.00 0.04 0.02 0.00 0.00 0.00 0.00
0.00 0.00 0.00 0.00 0.00 0.00 0.00 0.00 0.00 0.00 0.00 0.00 0.00 0.00 0.00 0.00 0.00 0.00 0.00 0.00 0.00 0.00 0.00 0.00 0.00 0.00 0.00 0.00 0.00 0.00 0.00 0.01 0.00 0.00 0.00 0.00 0.00 0.00 0.00 0.01 0.04 0.07 0.06 0.10 0.07 0.02 0.02 0.06 0.03 0.06 0.03 0.03 0.06 0.02 0.03 0.03 0.02 0.01 0.01 0.00 0.00 0.00 0.00
-0.00 0.00 0.00 0.00 0.00 0.00 0.00 0.00 0.00 0.00 0.01 0.00 0.00 0.00 0.00 0.00 0.00 0.00 0.00 0.00 0.00 0.00 0.00 0.00 0.00 0.00 0.00 0.00 0.00 0.00 0.00 0.01 0.00 0.00 0.00 0.00 0.00 0.00 0.00 0.00 0.01 0.08 0.03 0.06 0.05 0.07 0.04 0.09 0.06 0.10 0.07 0.03 0.04 0.03 0.01 0.02 0.02 0.02 0.00 0.00 -0.00 0.00 0.00
0.00 0.00 0.00 0.00 0.00 0.00 0.00 0.01 0.01 0.01 0.00 0.00 0.00 0.00 0.00 0.00 0.00 0.00 0.00 0.00 0.00 0.00 0.00 0.00 0.00 0.00 0.00 0.00 0.00 0.00 0.00 0.00 0.00 0.01 0.00 0.00 0.00 0.00 0.00 0.00 0.00 0.01 0.03 0.03 0.05 0.07 0.17 0.18 0.08 0.15 0.08 0.14 0.04 0.04 0.05 0.02 0.02 0.03 0.01 0.00 0.01 -0.00 0.00
0.00 0.00 0.00 0.00 0.00 0.00 0.00 0.00 0.01 0.00 0.00 0.00 0.00 0.00 0.00 0.00 0.00 0.00 0.00 -0.00 0.00 0.00 0.00 0.00 0.00 0.00 0.00 0.00 0.00 0.00 0.00 0.00 0.00 0.00 0.00 0.00 0.00 0.00 0.00 0.00 0.00 0.00 0.01 0.02 0.02 0.03 0.03 0.05 0.03 0.14 0.10 0.20 0.15 0.04 0.03 0.02 0.03 0.02 0.01 0.01 0.00 0.00 0.00
0.00 0.00 0.00 0.00 0.00 0.00 0.00 0.00 0.00 0.00 0.00 0.00 0.00 0.00 0.00 0.00 0.00 0.00 0.00 0.00 0.00 0.00 0.00 0.00 0.00 0.00 0.00 0.00 0.00 0.00 0.00 0.00 0.00 0.00 0.00 0.00 0.00 0.00 0.00 0.00 0.00 0.00 0.02 0.03 0.03 0.02 0.01 0.05 0.06 0.10 0.10 0.16 0.26 0.30 0.01 0.00 0.00 0.01 0.01 0.00 0.00 0.00 0.02
0.00 0.00 0.00 0.00 0.00 0.00 0.00 0.00 0.00 0.00 0.00 0.00 0.00 0.00 0.00 0.00 0.00 0.00 0.00 0.00 0.00 0.00 0.00 0.00 0.00 0.00 -0.00 0.00 0.00 0.00 0.00 0.00 0.00 0.00 0.00 0.00 0.00 0.00 0.00 0.00 0.00 0.00 0.00 0.01 0.01 0.05 0.03 0.01 0.01 0.02 0.22 0.28 0.21 0.05 0.06 0.01 0.01 0.02 0.01 0.00 0.00 0.00 0.00
0.00 0.00 0.00 0.00 0.00 -0.00 -0.00 0.00 0.00 0.00 0.00 0.00 0.00 0.00 0.00 0.00 0.00 0.00 0.00 0.00 0.00 0.00 0.00 0.00 0.00 0.00 0.00 0.00 0.00 0.00 0.00 0.00 0.00 0.00 0.00 0.00 0.00 0.00 0.00 0.00 0.00 0.00 0.00 0.00 0.00 0.00 0.01 0.01 0.27 0.47 0.07 0.08 0.10 0.06 0.05 0.03 0.00 0.00 0.00 0.00 0.00 0.00 -0.00
0.00 0.00 0.00 0.00 0.00 0.00 -0.00 0.00 0.00 0.00 0.00 0.00 0.00 0.00 0.00 0.00 0.00 0.00 0.00 0.00 0.00 0.00 0.00 0.00 -0.00 -0.00 0.00 -0.00 0.00 0.00 0.00 0.00 0.01 0.01 0.00 0.00 0.00 0.00 0.00 0.00 0.00 0.00 0.00 0.00 0.00 0.00 0.01 0.01 0.02 0.15 0.39 0.34 0.25 0.20 0.09 0.03 0.01 0.00 0.00 0.00 0.00 0.00 0.00
0.00 0.00 -0.00 0.00 0.00 0.00 0.00 0.00 0.00 0.00 0.00 0.00 0.00 0.00 0.00 0.00 0.00 0.00 0.00 0.00 0.00 0.00 0.00 0.00 0.00 0.00 0.00 0.00 0.00 0.00 0.00 0.00 0.01 0.01 0.01 0.00 0.00 0.00 0.00 0.00 0.00 0.00 0.00 0.00 0.00 0.01 0.01 0.00 0.02 0.02 0.18 0.30 0.08 0.41 0.30 0.15 0.06 0.01 0.00 0.00 0.03 0.00 0.00
0.00 0.00 -0.00 -0.00 0.00 0.00 0.00 0.00 0.00 0.00 0.00 0.00 0.00 0.00 0.00 0.00 0.00 0.00 0.00 0.00 0.00 0.00 0.00 0.00 -0.00 0.00 0.00 0.00 0.00 0.01 0.01 0.01 0.01 0.01 0.01 0.01 0.01 0.00 0.00 0.00 0.00 0.00 0.00 0.00 0.01 0.00 0.00 0.01 0.01 0.16 0.26 0.40 0.35 0.07 0.12 0.10 0.11 0.03 0.08 0.20 0.37 0.16 0.19
0.00 0.00 0.00 0.00 0.00 0.00 0.00 0.00 0.00 0.00 0.00 0.00 0.00 0.00 0.00 0.00 0.00 0.00 0.00 0.00 0.00 0.00 0.00 -0.00 0.00 -0.00 0.00 0.00 0.00 0.00 0.01 0.01 0.01 0.01 0.01 0.01 0.01 0.01 0.00 0.00 0.00 0.00 0.00 0.00 0.00 0.01 0.01 0.00 0.03 0.20 0.09 0.12 0.11 0.11 0.15 0.09 0.07 0.02 0.00 0.00 0.02 0.00 0.19
0.00 0.00 0.00 0.00 0.00 0.00 0.00 0.00 0.00 0.00 0.00 0.00 0.00 0.00 0.00 0.00 0.00 0.00 0.00 0.00 0.00 0.00 0.00 0.00 0.00 0.00 0.00 0.00 0.00 0.01 0.01 0.02 0.02 0.02 0.01 0.01 0.00 0.01 0.01 0.01 0.01 0.00 0.00 0.00 0.00 0.00 0.00 0.02 0.03 0.08 0.25 0.23 0.26 0.17 0.12 0.08 0.10 0.04 0.02 0.02 0.00 0.09 0.10
0.00 0.00 0.00 0.00 0.00 0.00 0.00 0.00 0.00 0.01 0.01 0.00 0.00 0.00 0.00 0.00 0.00 0.00 0.00 0.00 0.00 0.00 0.00 0.00 0.00 -0.00 0.00 0.00 0.00 0.00 0.01 0.02 0.02 0.02 0.01 0.01 0.00 0.00 0.00 0.00 0.01 0.01 0.01 0.01 0.00 0.00 0.00 0.04 0.04 0.13 0.15 0.19 0.28 0.11 0.18 0.07 0.03 0.07 0.02 0.00 0.00 0.00 0.00
0.00 0.00 0.00 0.00 0.00 0.00 0.01 0.01 0.01 0.00 0.01 0.00 0.00 0.00 0.00 0.00 0.00 0.00 0.00 0.00 0.00 0.00 0.00 0.00 0.00 0.00 0.00 0.00 0.00 0.01 0.02 0.03 0.03 0.03 0.03 0.01 0.01 0.01 0.01 0.00 0.00 0.01 0.01 0.01 0.00 0.00 0.00 0.10 0.03 0.06 0.13 0.09 0.08 0.06 0.14 0.06 0.12 0.01 0.00 0.00 0.00 0.00 0.01
0.00 0.00 0.00 0.00 0.01 0.01 0.01 0.01 0.00 0.00 0.00 0.00 0.00 0.00 0.01 0.01 0.00 0.00 0.00 0.00 0.00 0.00 0.00 0.00 0.00 0.00 0.00 0.00 0.00 0.00 0.02 0.04 0.04 0.03 0.03 0.03 0.03 0.01 0.01 0.00 0.00 0.00 0.01 0.01 0.00 0.00 0.00 0.02 0.02 0.06 0.10 0.10 0.09 0.11 0.08 0.06 0.13 0.14 0.09 0.04 0.06 0.06 0.03
0.00 0.00 0.00 0.00 0.01 0.01 0.01 0.01 0.00 0.00 0.00 0.00 0.00 0.00 0.01 0.01 0.01 0.00 0.00 0.01 0.01 0.01 0.01 0.00 0.00 0.00 0.00 0.00 0.00 0.00 0.01 0.04 0.04 0.04 0.04 0.04 0.03 0.03 0.03 0.03 0.00 0.00 0.00 0.00 0.00 0.00 0.00 0.00 0.02 0.09 0.03 0.11 0.12 0.09 0.07 0.08 0.20 0.11 0.06 0.06 0.31 0.14 0.02
0.00 0.00 0.00 0.01 0.01 0.00 0.00 0.01 0.01 0.01 0.01 0.00 0.00 0.00 0.00 0.00 0.01 0.01 0.01 0.01 0.01 0.01 0.01 0.01 0.01 0.00 0.00 0.00 0.00 0.00 0.02 0.03 0.03 0.05 0.04 0.03 0.03 0.02 0.01 0.02 0.03 0.01 0.00 0.00 0.00 0.00 0.00 0.00 0.00 0.07 0.06 0.19 0.14 0.15 0.13 0.14 0.16 0.07 0.20 0.13 0.01 0.08 0.03
0.00 0.00 0.00 0.00 0.01 0.00 0.00 0.01 0.01 0.01 0.01 0.00 0.00 0.00 0.00 0.00 0.01 0.01 0.01 0.01 0.01 0.01 0.01 0.01 0.02 0.01 0.00 0.00 0.00 0.00 0.01 0.02 0.03 0.05 0.07 0.04 0.02 0.02 0.01 0.01 0.02 0.01 0.00 0.00 0.00 0.00 0.00 0.00 0.00 0.05 0.05 0.05 0.04 0.05 0.08 0.24 0.19 0.14 0.10 0.35 0.15 0.01 0.08
0.00 0.00 0.00 0.00 0.01 0.00 0.00 0.00 0.01 0.01 0.01 0.00 0.00 0.00 0.00 0.00 0.01 0.01 0.01 0.01 0.01 0.01 0.01 0.01 0.01 0.01 0.00 0.00 0.00 0.00 0.01 0.02 0.03 0.02 0.05 0.03 0.03 0.01 0.01 0.01 0.01 0.00 0.00 0.00 0.01 0.02 0.01 0.01 0.01 0.01 0.01 0.08 0.03 0.22 0.15 0.11 0.22 0.08 0.09 0.04 0.13 0.11 0.17
0.00 0.00 0.00 0.00 0.00 0.00 0.01 0.01 0.01 0.01 0.01 0.01 0.01 0.00 0.00 0.00 0.01 0.01 0.02 0.02 0.02 0.02 0.02 0.01 0.01 0.01 0.01 0.01 0.01 0.01 0.03 0.03 0.04 0.04 0.04 0.05 0.02 0.01 0.01 0.01 0.01 0.00 0.00 0.01 0.02 0.02 0.02 0.01 0.01 0.02 0.03 0.06 0.03 0.06 0.09 0.11 0.15 0.14 0.06 0.27 0.07 0.13 0.13
MSLP
1018.86 1019.10 1019.18 1019.10 1019.14 1019.06 1018.98 1018.86 1018.58 1018.50 1018.58 1018.50 1018.38 1018.22 1018.06 1017.90 1017.74 1017.66 1017.54 1017.42 1017.34 1017.10 1016.94 1016.74 1016.62 1016.54 1016.70 1016.90 1017.18 1017.30 1017.38 1017.54 1017.82 1018.30 1018.70 1018.54 1018.22 1018.06 1017.50 1017.58 1017.62 1017.34 1017.02 1017.02 1016.94 1017.50 1017.66 1018.38 1018.50 1018.22 1017.90 1017.98 1018.22 1018.42 1018.42 1018.46 1018.50 1018.74 1019.10 1019.22 1019.10 1019.18 1019.38
1018.78 1018.78 1018.82 1018.94 1018.90 1018.90 1019.06 1018.86 1018.78 1018.58 1018.42 1018.38 1018.42 1018.30 1018.18 1017.98 1017.82 1017.66 1017.54 1017.42 1017.26 1017.10 1016.82 1016.66 1016.54 1016.34 1016.34 1016.62 1016.90 1017.18 1017.34 1017.54 1017.54 1017.58 1018.06 1018.34 1018.22 1018.10 1017.78 1017.70 1017.62 1017.66 1017.38 1017.18 1016.94 1016.86 1017.42 1017.70 1017.62 1018.02 1018.58 1018.14 1018.26 1018.22 1018.22 1018.22 1018.22 1018.34 1018.62 1018.90 1018.78 1018.62 1018.82
1018.82 1018.78 1018.78 1018.98 1018.98 1018.94 1018.94 1018.90 1018.78 1018.66 1018.42 1018.26 1018.14 1018.26 1018.22 1017.98 1017.78 1017.66 1017.50 1017.38 1017.26 1017.06 1016.94 1016.62 1016.38 1016.34 1016.30 1016.26 1016.30 1016.46 1016.70 1017.14 1017.26 1017.42 1017.42 1017.62 1017.86 1017.78 1017.50 1017.50 1017.86 1017.90 1017.74 1017.42 1017.26 1017.22 1017.06 1017.02 1017.22 1016.98 1017.90 1018.42 1018.98 1018.26 1017.98 1018.14 1018.14 1018.14 1018.34 1018.50 1018.66 1018.42 1018.30
1019.06 1019.10 1018.94 1018.90 1018.90 1018.98 1018.98 1018.86 1018.66 1018.54 1018.38 1018.34 1018.22 1018.02 1018.10 1018.10 1017.98 1017.74 1017.50 1017.30 1017.10 1016.94 1016.78 1016.66 1016.46 1016.26 1016.02 1016.02 1016.06 1016.10 1016.22 1016.46 1016.90 1017.18 1017.34 1017.26 1017.26 1017.46 1017.58 1017.46 1017.42 1017.46 1017.54 1017.58 1017.26 1017.06 1017.26 1017.30 1017.46 1017.18 1016.94 1017.38 1017.82 1018.30 1017.86 1017.82 1017.94 1017.86 1017.94 1018.10 1018.34 1018.30 1018.02
1019.02 1018.98 1018.98 1019.02 1018.98 1018.98 1018.94 1018.78 1018.58 1018.50 1018.38 1018.22 1018.06 1017.90 1017.86 1017.90 1017.98 1017.82 1017.58 1017.26 1016.98 1016.82 1016.66 1016.42 1016.26 1016.06 1015.90 1015.78 1015.78 1015.86 1015.98 1016.14 1016.34 1016.62 1016.90 1017.14 1017.06 1017.14 1017.22 1017.30 1017.22 1017.10 1017.02 1016.86 1016.50 1016.58 1016.98 1017.14 1017.06 1016.94 1016.78 1016.50 1016.90 1016.98 1016.94 1017.58 1017.62 1017.62 1017.62 1017.70 1017.82 1017.98 1017.86
1018.82 1018.90 1018.90 1018.90 1018.82 1018.74 1018.62 1018.66 1018.62 1018.46 1018.22 1018.14 1018.06 1018.02 1017.78 1017.98 1017.98 1017.82 1017.58 1017.34 1016.98 1016.58 1016.42 1016.22 1016.06 1015.98 1015.86 1015.74 1015.58 1015.62 1015.66 1015.86 1015.86 1015.98 1016.34 1016.54 1016.78 1016.86 1016.78 1016.94 1017.06 1016.94 1016.86 1016.46 1016.14 1016.14 1016.26 1016.42 1016.70 1017.22 1016.10 1015.70 1016.70 1016.66 1016.30 1017.18 1017.78 1017.38 1017.14 1017.30 1017.30 1017.46 1017.62
1018.62 1018.70 1018.66 1018.54 1018.58 1018.54 1018.46 1018.54 1018.50 1018.38 1018.26 1018.22 1018.10 1018.14 1017.98 1017.94 1017.82 1017.70 1017.54 1017.38 1017.18 1016.82 1016.50 1016.22 1016.02 1015.78 1015.70 1015.62 1015.46 1015.42 1015.38 1015.34 1015.42 1015.62 1015.70 1015.90 1016.06 1015.98 1016.22 1016.62 1016.82 1016.70 1016.66 1016.46 1016.34 1016.34 1016.54 1016.42 1016.70 1016.74 1016.58 1015.58 1015.66 1016.18 1015.94 1016.58 1016.94 1017.50 1017.10 1016.86 1016.86 1017.02 1017.34
1018.46 1018.42 1018.38 1018.34 1018.42 1018.46 1018.42 1018.46 1018.42 1018.30 1018.14 1017.94 1017.90 1017.82 1017.94 1018.02 1017.98 1017.86 1017.66 1017.38 1017.10 1016.90 1016.66 1016.30 1015.90 1015.70 1015.54 1015.42 1015.22 1015.10 1014.98 1014.86 1014.94 1015.18 1015.34 1015.54 1015.66 1015.70 1015.70 1015.90 1016.18 1016.34 1016.38 1016.38 1016.42 1016.26 1016.02 1015.74 1016.06 1016.06 1016.46 1016.66 1016.22 1016.34 1016.14 1016.06 1016.54 1017.02 1016.90 1016.78 1016.74 1016.90 1017.26
1018.26 1018.30 1018.22 1018.22 1018.26 1018.38 1018.42 1018.38 1018.26 1018.18 1018.02 1017.86 1017.74 1017.74 1017.74 1017.78 1017.78 1017.66 1017.50 1017.30 1017.02 1016.82 1016.66 1016.34 1015.94 1015.54 1015.34 1015.18 1014.94 1014.74 1014.74 1014.62 1014.62 1014.78 1015.10 1015.26 1015.30 1015.14 1015.14 1015.38 1015.82 1015.86 1015.94 1016.14 1016.18 1016.14 1015.94 1015.54 1015.38 1015.58 1015.74 1016.18 1016.46 1017.06 1016.54 1016.30 1016.18 1016.46 1016.22 1017.42 1017.82 1017.50 1017.78
1018.18 1018.26 1018.14 1018.18 1018.34 1018.34 1018.30 1018.18 1018.02 1017.86 1017.86 1017.82 1017.66 1017.54 1017.54 1017.46 1017.42 1017.38 1017.30 1017.18 1016.90 1016.54 1016.30 1015.98 1015.62 1015.34 1015.10 1014.94 1014.70 1014.50 1014.42 1014.26 1014.26 1014.18 1014.18 1014.42 1014.38 1014.46 1014.46 1014.78 1015.06 1015.34 1015.62 1015.74 1015.86 1015.86 1015.90 1016.26 1015.98 1015.46 1015.22 1015.50 1015.58 1015.90 1016.42 1016.62 1016.22 1016.14 1016.14 1016.66 1017.86 1017.90 1017.66
1017.90 1017.98 1018.02 1018.06 1018.10 1018.06 1018.02 1017.94 1017.86 1017.74 1017.58 1017.50 1017.50 1017.42 1017.38 1017.30 1017.18 1017.22 1017.14 1016.94 1016.74 1016.54 1016.26 1015.98 1015.66 1015.34 1014.98 1014.62 1014.38 1014.18 1013.98 1013.90 1013.86 1013.82 1013.74 1013.78 1014.06 1014.22 1014.26 1014.46 1014.50 1014.70 1014.78 1015.22 1015.26 1015.42 1015.66 1015.82 1016.18 1015.94 1015.54 1014.86 1014.90 1015.42 1015.14 1015.78 1015.86 1015.50 1015.66 1016.18 1016.90 1017.50 1017.98
1017.66 1017.74 1017.74 1017.82 1017.86 1017.90 1017.86 1017.82 1017.74 1017.66 1017.58 1017.50 1017.34 1017.22 1017.06 1016.86 1016.70 1016.58 1016.58 1016.58 1016.54 1016.38 1016.06 1015.74 1015.38 1015.18 1014.78 1014.30 1014.02 1013.90 1013.70 1013.62 1013.46 1013.38 1013.26 1013.38 1013.34 1013.54 1013.78 1013.94 1013.98 1014.10 1014.18 1014.42 1014.70 1014.94 1015.26 1015.46 1015.58 1015.62 1015.90 1015.34 1014.46 1014.70 1014.78 1014.74 1015.46 1014.82 1014.86 1016.58 1016.46 1016.86 1017.82
1017.26 1017.38 1017.50 1017.54 1017.62 1017.62 1017.66 1017.62 1017.54 1017.50 1017.42 1017.18 1017.02 1016.90 1016.70 1016.50 1016.46 1016.38 1016.18 1016.14 1016.14 1016.06 1015.86 1015.54 1015.18 1014.90 1014.66 1014.26 1013.94 1013.62 1013.30 1013.22 1013.14 1013.02 1012.90 1012.78 1012.86 1012.90 1013.02 1013.34 1013.26 1013.22 1013.38 1013.78 1014.02 1014.34 1014.66 1014.86 1015.02 1015.18 1015.26 1015.42 1014.34 1014.22 1014.46 1014.62 1014.98 1014.86 1014.62 1015.26 1015.82 1016.62 1017.22
1017.14 1017.18 1017.22 1017.26 1017.38 1017.34 1017.34 1017.34 1017.22 1017.02 1016.98 1016.90 1016.78 1016.66 1016.46 1016.18 1016.10 1016.06 1015.94 1015.70 1015.58 1015.50 1015.42 1015.30 1015.14 1014.86 1014.46 1014.10 1013.66 1013.30 1013.14 1012.90 1012.78 1012.50 1012.38 1012.30 1012.30 1012.38 1012.46 1012.50 1012.58 1012.94 1012.86 1012.94 1013.14 1013.54 1013.90 1014.10 1014.50 1014.70 1014.86 1015.14 1014.46 1013.90 1014.10 1014.54 1014.74 1014.70 1014.82 1014.66 1015.06 1015.90 1016.82
1016.82 1016.82 1016.94 1016.98 1017.06 1017.02 1016.94 1016.90 1016.70 1016.78 1016.86 1016.74 1016.58 1016.38 1016.18 1015.94 1015.86 1015.78 1015.66 1015.46 1015.26 1015.06 1014.94 1014.78 1014.66 1014.54 1014.22 1013.86 1013.46 1013.02 1012.82 1012.66 1012.50 1012.26 1011.94 1011.86 1011.78 1011.74 1011.90 1012.10 1011.98 1011.94 1012.14 1012.46 1012.46 1012.70 1012.94 1013.42 1013.74 1014.14 1014.38 1014.70 1014.82 1013.74 1013.46 1014.06 1014.34 1014.34 1015.26 1015.42 1015.50 1015.98 1016.66
1016.50 1016.62 1016.74 1016.70 1016.66 1016.62 1016.50 1016.38 1016.22 1016.50 1016.46 1016.30 1016.26 1016.14 1015.98 1015.74 1015.54 1015.30 1015.14 1014.98 1014.86 1014.66 1014.46 1014.34 1014.18 1014.06 1013.98 1013.70 1013.26 1012.90 1012.54 1012.34 1012.26 1012.10 1011.90 1011.54 1011.38 1011.26 1011.30 1011.42 1011.42 1011.58 1011.58 1011.70 1011.78 1011.94 1012.14 1012.58 1012.90 1013.42 1013.70 1014.10 1014.58 1013.70 1013.14 1013.30 1013.82 1014.06 1015.14 1015.54 1015.70 1016.14 1016.54
1016.30 1016.38 1016.38 1016.26 1016.26 1016.22 1016.14 1015.98 1015.86 1015.94 1016.06 1015.94 1015.82 1015.74 1015.66 1015.46 1015.30 1015.14 1014.94 1014.70 1014.46 1014.22 1014.02 1013.94 1013.82 1013.58 1013.42 1013.30 1013.06 1012.66 1012.30 1011.98 1011.78 1011.70 1011.50 1011.30 1011.06 1010.90 1010.82 1010.86 1010.86 1011.02 1011.26 1011.54 1011.42 1011.58 1011.46 1011.78 1012.26 1012.70 1013.14 1013.42 1013.70 1013.54 1012.78 1012.98 1013.06 1013.30 1014.26 1015.22 1015.18 1015.74 1016.18
1016.02 1016.10 1016.14 1016.02 1015.98 1015.90 1015.82 1015.74 1015.58 1015.50 1015.62 1015.58 1015.54 1015.46 1015.30 1015.14 1014.98 1014.82 1014.66 1014.42 1014.14 1013.82 1013.54 1013.38 1013.26 1013.06 1012.86 1012.78 1012.70 1012.42 1012.02 1011.62 1011.38 1011.10 1011.06 1010.90 1010.74 1010.50 1010.38 1010.34 1010.38 1010.46 1010.58 1011.14 1011.50 1011.22 1011.02 1011.30 1011.46 1011.86 1012.34 1012.62 1013.10 1012.90 1012.58 1012.86 1013.02 1012.86 1013.82 1014.54 1014.94 1015.46 1015.86
1015.78 1015.82 1015.82 1015.74 1015.66 1015.54 1015.46 1015.38 1015.38 1015.38 1015.38 1015.26 1015.10 1015.02 1014.94 1014.78 1014.58 1014.38 1014.18 1013.98 1013.74 1013.46 1013.18 1012.86 1012.66 1012.50 1012.42 1012.30 1012.22 1012.14 1011.78 1011.30 1010.90 1010.70 1010.50 1010.38 1010.18 1010.02 1009.98 1009.86 1009.78 1009.90 1009.98 1010.14 1010.46 1010.82 1010.50 1010.42 1010.70 1011.10 1011.70 1011.94 1012.30 1012.42 1011.98 1012.22 1012.54 1012.62 1013.30 1013.94 1014.74 1015.30 1015.82
1015.54 1015.58 1015.50 1015.46 1015.38 1015.26 1015.14 1015.14 1015.14 1015.06 1014.94 1014.86 1014.74 1014.50 1014.38 1014.34 1014.14 1013.98 1013.78 1013.58 1013.34 1013.18 1012.98 1012.66 1012.34 1012.10 1011.98 1011.90 1011.78 1011.66 1011.38 1011.02 1010.62 1010.26 1009.98 1009.74 1009.62 1009.58 1009.38 1009.38 1009.38 1009.34 1009.34 1009.30 1009.46 1009.82 1009.98 1010.10 1010.14 1010.26 1010.74 1010.98 1011.38 1011.50 1011.50 1011.74 1012.14 1012.26 1012.86 1013.86 1014.38 1014.62 1015.26
1015.30 1015.26 1015.26 1015.18 1015.10 1014.98 1014.98 1014.90 1014.78 1014.62 1014.54 1014.38 1014.22 1013.98 1013.82 1013.70 1013.58 1013.50 1013.30 1013.14 1012.90 1012.74 1012.50 1012.30 1012.14 1011.86 1011.62 1011.46 1011.38 1011.18 1011.06 1010.74 1010.26 1009.82 1009.50 1009.30 1009.06 1009.02 1008.90 1008.82 1008.78 1008.70 1008.62 1008.62 1008.70 1008.98 1009.42 1009.74 1009.50 1009.74 1010.30 1010.78 1010.98 1010.70 1010.86 1011.18 1011.74 1011.94 1012.42 1013.26 1013.86 1014.34 1014.70
1015.02 1014.98 1014.86 1014.78 1014.66 1014.70 1014.74 1014.66 1014.50 1014.26 1014.06 1013.90 1013.74 1013.58 1013.50 1013.42 1013.30 1013.10 1012.82 1012.58 1012.34 1012.18 1012.02 1011.82 1011.58 1011.42 1011.30 1011.14 1010.94 1010.86 1010.62 1010.46 1010.06 1009.50 1009.06 1008.78 1008.58 1008.42 1008.38 1008.38 1008.22 1008.10 1008.02 1008.06 1008.22 1008.46 1008.78 1008.82 1008.94 1009.18 1009.42 1009.90 1010.66 1010.86 1010.42 1010.38 1010.86 1011.30 1011.86 1012.82 1013.30 1013.54 1014.26
1014.66 1014.54 1014.62 1014.58 1014.54 1014.58 1014.46 1014.26 1013.98 1013.70 1013.50 1013.42 1013.38 1013.26 1013.10 1012.98 1012.90 1012.70 1012.46 1012.22 1011.98 1011.70 1011.38 1011.10 1010.94 1011.22 1011.34 1011.02 1010.66 1010.26 1010.18 1010.02 1009.82 1009.38 1008.82 1008.38 1007.98 1007.86 1007.78 1007.82 1007.74 1007.78 1007.86 1007.90 1008.06 1008.26 1008.50 1008.70 1008.82 1008.58 1008.66 1009.30 1009.90 1010.46 1010.78 1010.58 1010.66 1011.10 1011.50 1012.38 1012.58 1012.98 1013.78
1014.30 1014.34 1014.30 1014.34 1014.46 1014.34 1014.02 1013.74 1013.46 1013.26 1013.14 1013.06 1012.98 1012.86 1012.74 1012.50 1012.34 1012.22 1012.10 1011.90 1011.62 1011.30 1010.94 1010.54 1010.54 1010.78 1010.86 1011.14 1011.14 1010.62 1009.98 1009.66 1009.46 1009.10 1008.62 1008.06 1007.58 1007.38 1007.30 1007.22 1007.18 1007.30 1007.50 1007.62 1007.78 1007.98 1008.14 1008.50 1008.58 1008.78 1008.78 1008.82 1009.30 1009.78 1010.06 1010.26 1010.18 1010.22 1010.90 1011.54 1011.98 1012.46 1013.10
1014.10 1014.10 1014.10 1014.10 1014.10 1013.94 1013.82 1013.62 1013.42 1013.22 1013.06 1012.90 1012.66 1012.42 1012.26 1012.06 1011.82 1011.66 1011.46 1011.26 1011.06 1010.78 1010.42 1010.18 1010.34 1010.34 1010.50 1010.66 1010.82 1010.74 1010.38 1009.86 1009.30 1008.78 1008.34 1007.82 1007.26 1006.90 1006.74 1006.66 1006.66 1006.62 1006.58 1006.62 1006.86 1007.34 1007.82 1008.14 1008.46 1008.58 1008.70 1008.86 1009.14 1009.34 1009.26 1009.30 1009.62 1009.94 1010.42 1011.10 1011.54 1011.98 1012.46
1013.82 1013.82 1013.86 1013.86 1013.78 1013.70 1013.54 1013.46 1013.30 1013.10 1012.90 1012.70 1012.50 1012.30 1011.98 1011.70 1011.42 1011.18 1010.98 1010.70 1010.38 1010.10 1009.82 1009.70 1009.86 1009.90 1010.06 1010.22 1010.42 1010.58 1010.18 1009.82 1009.38 1008.70 1008.14 1007.58 1007.06 1006.62 1006.26 1006.10 1006.10 1006.06 1005.90 1006.14 1006.38 1006.42 1006.78 1007.46 1008.14 1008.50 1008.66 1008.82 1008.82 1008.82 1008.86 1009.14 1009.22 1009.26 1009.66 1010.14 1010.82 1011.42 1011.66
1013.46 1013.58 1013.70 1013.62 1013.50 1013.46 1013.54 1013.46 1013.34 1013.10 1012.82 1012.50 1012.22 1011.90 1011.58 1011.34 1011.02 1010.78 1010.58 1010.34 1009.94 1009.58 1009.22 1009.06 1009.26 1009.34 1009.50 1009.66 1009.86 1010.10 1009.70 1009.58 1009.18 1008.58 1008.10 1007.62 1007.10 1006.38 1005.90 1005.62 1005.54 1005.46 1005.38 1005.42 1005.54 1005.66 1005.94 1006.34 1007.18 1008.06 1008.34 1008.46 1008.54 1008.66 1008.90 1009.18 1009.50 1009.58 1009.58 1009.70 1010.06 1010.70 1010.98
1013.34 1013.58 1013.54 1013.38 1013.30 1013.30 1013.38 1013.34 1013.22 1012.98 1012.74 1012.50 1012.30 1011.94 1011.50 1011.10 1010.70 1010.42 1010.18 1009.94 1009.58 1009.14 1008.74 1008.70 1008.74 1008.74 1008.86 1008.98 1009.14 1009.46 1009.06 1008.98 1008.70 1008.22 1007.70 1007.26 1006.94 1006.62 1005.74 1005.18 1004.98 1004.82 1004.74 1004.78 1004.78 1005.02 1005.30 1005.62 1006.34 1007.10 1007.78 1008.10 1008.02 1008.30 1008.78 1009.02 1009.34 1009.46 1009.58 1009.54 1009.66 1009.90 1010.46
1013.10 1013.10 1013.06 1013.06 1013.10 1013.06 1013.10 1013.22 1013.14 1012.94 1012.66 1012.34 1011.94 1011.54 1011.10 1010.82 1010.38 1010.06 1009.74 1009.46 1009.10 1008.62 1008.14 1008.14 1008.10 1008.10 1008.10 1008.26 1008.54 1008.58 1008.26 1008.18 1007.98 1007.70 1007.18 1006.70 1006.42 1006.18 1005.86 1004.98 1004.50 1004.38 1004.18 1004.14 1004.22 1004.66 1004.98 1005.18 1005.70 1006.46 1007.14 1007.58 1007.86 1008.18 1008.86 1009.66 1009.38 1009.22 1009.26 1009.46 1009.58 1009.78 1010.18
1012.82 1012.70 1012.58 1012.86 1012.94 1012.90 1012.98 1012.98 1012.86 1012.66 1012.34 1011.94 1011.50 1011.10 1010.70 1010.34 1009.94 1009.54 1009.14 1008.74 1008.34 1007.74 1007.30 1007.14 1007.22 1007.26 1007.34 1007.46 1007.78 1007.46 1007.38 1007.34 1007.18 1006.98 1006.50 1006.10 1005.82 1005.50 1005.22 1004.66 1004.06 1003.78 1003.74 1003.62 1003.78 1004.30 1004.74 1005.06 1005.18 1005.90 1006.50 1007.26 1007.82 1008.54 1009.18 1009.66 1010.02 1009.98 1010.06 1010.14 1010.18 1010.46 1010.86
1012.50 1012.34 1012.38 1012.70 1012.78 1012.86 1012.90 1012.74 1012.42 1012.14 1011.90 1011.50 1011.06 1010.66 1010.22 1009.74 1009.34 1008.94 1008.62 1008.22 1007.86 1007.38 1006.82 1006.46 1006.38 1006.26 1006.38 1006.46 1006.66 1006.54 1006.50 1006.42 1006.26 1006.06 1005.74 1005.58 1005.22 1004.78 1004.30 1004.14 1003.82 1003.46 1003.26 1003.18 1003.58 1004.10 1004.62 1004.86 1005.02 1005.38 1006.06 1007.02 1008.02 1008.82 1009.62 1009.94 1010.30 1010.86 1010.86 1011.06 1011.30 1011.50 1011.74
1012.26 1012.10 1012.18 1012.42 1012.54 1012.66 1012.58 1012.30 1011.94 1011.70 1011.46 1011.10 1010.58 1010.10 1009.74 1009.34 1008.86 1008.42 1007.98 1007.54 1007.14 1006.82 1006.14 1005.66 1005.54 1005.38 1005.26 1005.38 1005.78 1005.78 1005.70 1005.50 1005.30 1004.98 1004.86 1004.70 1004.54 1004.26 1003.74 1003.46 1003.38 1003.18 1002.94 1002.86 1003.50 1003.90 1004.50 1004.62 1004.66 1005.06 1005.62 1006.50 1007.54 1008.30 1008.90 1009.34 1009.98 1010.58 1010.90 1011.26 1011.94 1012.26 1013.10
1011.94 1011.78 1012.06 1012.26 1012.26 1012.26 1012.18 1011.94 1011.58 1011.34 1010.98 1010.62 1010.18 1009.82 1009.42 1008.94 1008.38 1007.74 1007.26 1006.82 1006.34 1005.94 1005.42 1004.70 1004.26 1004.14 1004.22 1004.46 1004.90 1004.94 1004.82 1004.74 1004.30 1003.98 1003.90 1003.82 1003.62 1003.38 1003.18 1002.66 1002.50 1002.86 1002.98 1003.26 1003.50 1003.82 1004.26 1004.42 1004.38 1004.74 1005.26 1006.06 1006.98 1007.94 1008.74 1009.18 1009.54 1009.66 1010.50 1011.10 1011.78 1012.26 1012.98
1011.74 1011.74 1011.94 1011.94 1011.90 1011.98 1011.94 1011.78 1011.34 1011.10 1010.78 1010.30 1009.94 1009.50 1009.06 1008.54 1007.94 1007.06 1006.42 1005.98 1005.70 1005.22 1004.74 1003.98 1003.02 1002.98 1003.30 1003.62 1003.90 1004.22 1003.98 1003.70 1003.42 1003.30 1003.02 1002.98 1002.82 1002.50 1002.22 1001.90 1001.58 1002.02 1002.54 1003.18 1003.58 1003.90 1004.22 1004.38 1004.34 1004.50 1005.02 1005.54 1006.02 1007.26 1008.50 1009.38 1010.18 1010.06 1010.34 1011.18 1011.86 1012.38 1013.18
1011.74 1011.78 1011.74 1011.66 1011.62 1011.78 1011.82 1011.62 1011.34 1011.06 1010.58 1010.10 1009.70 1009.22 1008.66 1008.06 1007.34 1006.50 1005.82 1005.42 1005.14 1004.70 1004.14 1003.78 1003.02 1002.34 1002.30 1002.46 1002.78 1003.10 1003.18 1002.82 1002.54 1002.34 1002.34 1001.98 1001.82 1001.58 1001.30 1001.22 1001.30 1001.90 1002.58 1003.06 1003.58 1003.94 1004.26 1004.46 1004.54 1004.54 1004.86 1005.70 1006.90 1007.82 1008.34 1009.22 1009.86 1010.22 1010.38 1011.06 1011.82 1012.62 1013.34
1011.62 1011.46 1011.46 1011.38 1011.38 1011.70 1011.74 1011.58 1011.34 1010.94 1010.34 1009.86 1009.38 1008.82 1008.18 1007.54 1006.86 1006.02 1005.34 1004.78 1004.54 1004.22 1003.78 1003.30 1002.86 1002.38 1001.90 1001.70 1001.66 1001.86 1002.14 1002.14 1001.94 1001.86 1001.46 1000.98 1000.78 1000.86 1000.98 1001.10 1001.38 1002.02 1002.62 1002.98 1003.50 1003.90 1004.38 1004.66 1004.74 1004.74 1005.54 1006.54 1007.38 1007.94 1008.26 1009.26 1009.82 1010.30 1010.62 1011.02 1011.62 1012.66 1013.38
1011.34 1011.22 1011.10 1011.14 1011.22 1011.70 1011.78 1011.62 1011.30 1010.78 1010.26 1009.74 1009.10 1008.62 1008.06 1007.46 1006.66 1005.78 1004.98 1004.34 1004.02 1003.74 1003.42 1003.02 1002.46 1002.02 1001.50 1001.06 1000.74 1000.86 1001.10 1001.34 1001.26 1001.18 1001.06 1000.70 1000.50 1000.62 1000.82 1000.82 1001.38 1002.10 1002.66 1003.14 1003.74 1004.22 1004.62 1004.78 1004.86 1005.58 1006.18 1006.98 1007.70 1008.26 1008.70 1009.30 1009.86 1010.22 1010.62 1011.22 1011.86 1012.62 1013.22
Thickness
5591 5590 5590 5591 5592 5594 5596 5598 5600 5600 5601 5603 5605 5609 5611 5613 5616 5619 5621 5624 5627 5630 5634 5637 5639 5642 5644 5643 5642 5643 5645 5645 5646 5645 5643 5646 5649 5653 5660 5662 5664 5668 5670 5670 5672 5671 5669 5669 5670 5671 5674 5678 5678 5679 5681 5683 5684 5684 5682 5682 5682 5682 5680
5587 5587 5587 5587 5587 5588 5590 5591 5594 5595 5597 5598 5599 5602 5605 5608 5610 5613 5615 5618 5622 5625 5628 5632 5636 5639 5640 5640 5640 5640 5641 5641 5642 5643 5642 5642 5644 5648 5651 5654 5657 5660 5663 5667 5670 5670 5671 5671 5671 5670 5670 5671 5673 5676 5679 5679 5681 5682 5681 5680 5681 5682 5682
5582 5582 5583 5582 5582 5583 5583 5585 5587 5590 5592 5594 5595 5596 5598 5601 5604 5606 5609 5612 5615 5619 5622 5626 5630 5634 5636 5637 5638 5639 5639 5638 5638 5639 5640 5640 5640 5643 5646 5649 5651 5653 5655 5660 5664 5667 5669 5669 5670 5672 5670 5667 5668 5671 5675 5677 5677 5680 5680 5679 5679 5681 5682
5575 5575 5576 5577 5578 5577 5577 5579 5581 5584 5586 5588 5590 5592 5592 5595 5598 5600 5603 5606 5609 5612 5615 5619 5623 5628 5632 5633 5634 5636 5636 5636 5636 5635 5636 5638 5638 5640 5643 5645 5648 5650 5652 5656 5662 5664 5663 5663 5665 5668 5671 5670 5668 5669 5673 5674 5676 5678 5679 5678 5678 5679 5681
5570 5570 5570 5570 5571 5572 5573 5574 5575 5578 5580 5582 5585 5587 5589 5589 5591 5594 5597 5601 5604 5608 5610 5613 5618 5621 5626 5629 5630 5632 5632 5633 5635 5635 5634 5635 5635 5636 5640 5642 5645 5648 5650 5654 5660 5661 5660 5661 5662 5662 5669 5672 5669 5670 5675 5672 5672 5676 5677 5678 5678 5677 5678
5566 5565 5565 5565 5566 5567 5569 5569 5570 5572 5574 5576 5578 5580 5583 5583 5584 5588 5591 5595 5598 5602 5605 5608 5612 5615 5619 5623 5625 5627 5629 5630 5632 5633 5634 5633 5632 5634 5638 5639 5640 5642 5646 5651 5656 5658 5658 5660 5659 5658 5667 5673 5669 5670 5675 5672 5670 5673 5676 5677 5678 5677 5676
5562 5561 5562 5562 5561 5562 5564 5564 5564 5567 5568 5570 5571 5573 5575 5577 5579 5582 5584 5588 5592 5595 5599 5602 5605 5609 5612 5616 5619 5621 5625 5627 5628 5630 5632 5632 5631 5634 5636 5636 5637 5640 5642 5646 5649 5651 5654 5656 5655 5655 5661 5669 5669 5669 5673 5673 5668 5668 5673 5676 5677 5676 5674
5559 5558 5558 5558 5558 5557 5558 5558 5559 5561 5563 5565 5567 5568 5569 5570 5572 5575 5578 5581 5586 5589 5592 5595 5599 5603 5605 5609 5614 5617 5620 5623 5625 5626 5628 5628 5630 5632 5634 5634 5636 5638 5639 5641 5643 5646 5650 5653 5655 5656 5656 5658 5661 5663 5667 5670 5668 5666 5670 5671 5671 5673 5671
5556 5555 5554 5554 5553 5552 5552 5553 5554 5556 5558 5560 5561 5562 5563 5565 5567 5569 5572 5576 5580 5583 5586 5590 5595 5598 5601 5604 5608 5612 5616 5618 5621 5623 5624 5625 5629 5632 5634 5634 5634 5636 5637 5638 5638 5641 5646 5649 5652 5655 5654 5652 5654 5656 5659 5663 5665 5667 5668 5665 5661 5664 5665
5551 5551 5551 5550 5549 5549 5548 5549 5550 5551 5552 5554 5556 5557 5558 5560 5562 5564 5567 5570 5573 5577 5581 5585 5590 5594 5596 5599 5603 5607 5612 5614 5617 5619 5622 5624 5628 5630 5632 5632 5632 5633 5634 5635 5635 5638 5640 5643 5643 5647 5651 5654 5655 5655 5656 5657 5661 5665 5667 5664 5659 5657 5658
5547 5547 5547 5546 5545 5545 5545 5545 5546 5546 5548 5548 5550 5552 5553 5555 5558 5559 5561 5564 5567 5571 5575 5580 5583 5587 5592 5596 5599 5603 5607 5611 5613 5616 5619 5622 5624 5627 5629 5629 5630 5632 5633 5633 5635 5637 5637 5636 5637 5640 5645 5651 5654 5655 5657 5658 5660 5664 5665 5662 5659 5656 5653
5544 5543 5542 5542 5541 5541 5541 5541 5542 5542 5543 5543 5545 5547 5549 5551 5553 5556 5558 5560 5562 5565 5568 5573 5578 5582 5586 5592 5595 5599 5603 5607 5609 5612 5616 5619 5621 5624 5625 5626 5629 5633 5634 5633 5634 5634 5634 5635 5636 5638 5639 5644 5651 5653 5656 5658 5657 5662 5665 5659 5656 5655 5649
5540 5539 5539 5538 5537 5537 5537 5537 5537 5538 5539 5540 5541 5543 5544 5547 5549 5551 5554 5557 5559 5561 5563 5567 5572 5576 5581 5586 5591 5595 5599 5602 5606 5609 5612 5616 5619 5621 5623 5625 5629 5632 5633 5634 5633 5633 5633 5633 5636 5638 5637 5639 5647 5651 5653 5655 5654 5658 5663 5661 5656 5653 5648
5536 5535 5535 5534 5534 5534 5534 5534 5534 5535 5536 5536 5537 5538 5540 5543 5544 5546 5549 5553 5556 5558 5560 5563 5565 5569 5574 5580 5586 5590 5594 5597 5601 5605 5609 5612 5616 5618 5620 5623 5626 5629 5630 5633 5635 5634 5633 5633 5633 5636 5637 5636 5641 5649 5651 5650 5651 5653 5656 5657 5655 5652 5647
5532 5531 5530 5530 5530 5530 5530 5531 5532 5532 5532 5533 5533 5534 5536 5538 5539 5541 5543 5547 5551 5554 5557 5560 5562 5565 5568 5574 5580 5585 5590 5593 5596 5600 5604 5609 5613 5615 5617 5620 5623 5626 5628 5631 5634 5635 5635 5635 5634 5635 5637 5635 5635 5645 5650 5648 5648 5649 5646 5647 5649 5648 5643
5527 5526 5526 5526 5527 5527 5527 5528 5529 5528 5528 5529 5530 5530 5532 5534 5535 5537 5539 5542 5546 5549 5552 5556 5559 5561 5564 5567 5573 5578 5584 5588 5591 5594 5598 5604 5608 5611 5614 5617 5619 5622 5624 5628 5632 5633 5635 5636 5635 5635 5636 5635 5632 5640 5648 5647 5647 5646 5640 5640 5644 5642 5637
5522 5522 5522 5522 5523 5523 5523 5524 5525 5524 5524 5525 5526 5526 5527 5529 5530 5532 5534 5537 5541 5544 5548 5551 5554 5558 5561 5564 5567 5572 5577 5583 5587 5590 5593 5598 5603 5607 5610 5613 5616 5618 5620 5621 5624 5629 5634 5635 5636 5635 5635 5635 5633 5637 5645 5645 5645 5645 5639 5637 5640 5637 5633
5518 5518 5518 5518 5519 5519 5519 5519 5520 5520 5519 5520 5521 5522 5523 5524 5526 5528 5530 5532 5536 5539 5543 5547 5550 5554 5557 5561 5563 5567 5572 5577 5582 5586 5590 5593 5598 5603 5606 5609 5613 5615 5615 5616 5618 5623 5630 5634 5635 5635 5635 5635 5633 5635 5641 5642 5642 5643 5638 5636 5637 5633 5630
5514 5514 5513 5514 5514 5514 5514 5514 5514 5514 5514 5516 5517 5518 5519 5520 5522 5524 5526 5528 5531 5534 5537 5542 5546 5549 5552 5556 5559 5562 5567 5571 5577 5582 5585 5590 5594 5598 5603 5606 5609 5611 5613 5617 5617 5621 5628 5633 5634 5634 5635 5636 5634 5636 5641 5641 5640 5640 5636 5634 5635 5630 5627
5510 5509 5509 5509 5509 5509 5509 5509 5509 5509 5509 5511 5512 5514 5515 5516 5518 5519 5521 5524 5526 5529 5532 5535 5540 5544 5547 5550 5554 5557 5562 5566 5572 5577 5581 5587 5590 5594 5599 5603 5605 5608 5612 5616 5619 5621 5625 5628 5631 5633 5634 5636 5636 5637 5640 5640 5638 5638 5634 5631 5632 5629 5626
5505 5504 5504 5504 5504 5504 5504 5504 5504 5504 5505 5506 5508 5510 5512 5512 5514 5516 5517 5520 5522 5524 5527 5530 5534 5538 5541 5545 5548 5552 5556 5560 5566 5572 5576 5582 5586 5590 5595 5598 5602 5606 5610 5615 5619 5620 5620 5622 5628 5632 5632 5634 5635 5637 5640 5639 5637 5636 5632 5630 5630 5629 5626
5501 5500 5499 5500 5499 5498 5498 5498 5499 5500 5501 5502 5504 5505 5506 5508 5509 5511 5513 5515 5517 5520 5523 5527 5531 5533 5535 5539 5542 5546 5551 5554 5560 5566 5572 5577 5582 5586 5590 5594 5598 5603 5608 5612 5615 5615 5617 5620 5625 5630 5632 5634 5634 5633 5636 5638 5637 5634 5631 5629 5630 5629 5626
5497 5495 5495 5494 5493 5493 5493 5494 5496 5497 5497 5498 5498 5499 5501 5503 5504 5505 5507 5510 5513 5516 5520 5524 5527 5527 5528 5531 5534 5540 5545 5549 5554 5559 5566 5572 5578 5582 5586 5590 5594 5599 5602 5605 5608 5610 5613 5615 5618 5625 5630 5633 5632 5630 5630 5632 5634 5634 5630 5629 5630 5630 5626
5492 5490 5489 5489 5487 5488 5488 5489 5491 5492 5493 5493 5493 5494 5496 5498 5499 5501 5503 5505 5507 5510 5515 5520 5521 5521 5522 5523 5525 5530 5537 5543 5548 5554 5560 5567 5573 5578 5582 5586 5590 5594 5597 5600 5603 5606 5608 5609 5612 5618 5624 5628 5629 5628 5627 5629 5632 5632 5631 5631 5631 5629 5627
5487 5485 5484 5483 5483 5483 5483 5484 5485 5485 5486 5487 5487 5489 5491 5492 5495 5496 5498 5501 5503 5506 5510 5514 5514 5515 5516 5517 5517 5520 5527 5534 5541 5548 5555 5562 5568 5573 5578 5582 5586 5591 5595 5600 5602 5603 5604 5605 5608 5612 5617 5621 5623 5625 5628 5631 5632 5632 5631 5631 5630 5628 5627
5482 5481 5479 5478 5478 5478 5477 5477 5477 5478 5479 5480 5481 5483 5485 5487 5490 5491 5493 5496 5499 5502 5506 5508 5509 5510 5510 5511 5511 5513 5518 5525 5532 5541 5549 5555 5562 5568 5574 5577 5581 5587 5593 5597 5600 5603 5604 5604 5604 5606 5609 5614 5618 5622 5626 5626 5627 5629 5630 5631 5630 5628 5628
5478 5476 5474 5473 5473 5473 5471 5470 5470 5471 5472 5473 5475 5477 5479 5481 5483 5485 5487 5489 5492 5497 5501 5503 5504 5504 5505 5506 5506 5508 5513 5518 5525 5534 5542 5548 5555 5562 5569 5574 5578 5584 5591 5594 5598 5602 5605 5605 5603 5602 5604 5608 5613 5618 5619 5619 5620 5623 5626 5629 5630 5628 5628
5473 5471 5469 5469 5468 5467 5465 5464 5464 5463 5465 5466 5466 5469 5471 5474 5476 5478 5479 5481 5484 5490 5495 5497 5498 5499 5501 5502 5502 5504 5510 5515 5521 5529 5537 5543 5549 5554 5562 5570 5575 5581 5587 5592 5596 5599 5602 5604 5604 5602 5601 5604 5609 5612 5612 5613 5617 5619 5622 5626 5628 5628 5627
5468 5467 5466 5465 5463 5462 5459 5458 5457 5456 5457 5458 5460 5462 5464 5466 5469 5471 5473 5475 5478 5484 5490 5492 5493 5495 5497 5498 5499 5502 5507 5513 5518 5525 5533 5540 5545 5550 5556 5565 5572 5578 5583 5588 5593 5595 5597 5601 5601 5600 5600 5601 5604 5605 5603 5604 5609 5613 5616 5620 5623 5625 5623
5464 5464 5463 5460 5457 5456 5453 5451 5451 5450 5451 5453 5455 5456 5458 5460 5463 5465 5467 5469 5473 5480 5487 5489 5490 5493 5494 5495 5496 5501 5506 5511 5516 5522 5530 5537 5543 5548 5554 5562 5569 5576 5580 5584 5588 5590 5592 5595 5597 5598 5597 5595 5595 5595 5595 5597 5601 5604 5607 5611 5613 5615 5615
5461 5461 5459 5455 5452 5450 5447 5446 5447 5446 5446 5448 5449 5451 5453 5455 5458 5460 5462 5465 5468 5474 5481 5486 5488 5491 5493 5493 5495 5500 5505 5509 5515 5521 5527 5534 5540 5547 5554 5560 5565 5572 5578 5582 5583 5583 5585 5588 5592 5594 5594 5591 5588 5588 5589 5592 5593 5594 5597 5600 5601 5602 5602
5457 5457 5454 5451 5448 5445 5443 5443 5443 5442 5442 5443 5445 5447 5449 5451 5454 5457 5458 5461 5465 5470 5477 5484 5487 5489 5492 5492 5494 5498 5502 5507 5514 5521 5527 5532 5538 5544 5552 5558 5563 5568 5574 5577 5577 5577 5578 5581 5587 5590 5591 5588 5586 5586 5588 5590 5590 5590 5592 5592 5592 5591 5589
5455 5454 5450 5446 5444 5441 5439 5439 5439 5439 5439 5440 5441 5443 5444 5446 5450 5455 5457 5459 5463 5468 5475 5483 5488 5491 5491 5492 5493 5496 5500 5506 5514 5520 5525 5531 5537 5544 5551 5559 5564 5567 5568 5570 5572 5572 5571 5575 5582 5586 5587 5587 5587 5586 5586 5586 5586 5590 5590 5587 5585 5584 5580
5451 5449 5445 5442 5441 5437 5435 5435 5435 5435 5435 5437 5437 5438 5440 5442 5447 5452 5456 5458 5462 5467 5472 5480 5489 5492 5492 5492 5493 5495 5499 5506 5513 5518 5523 5530 5537 5544 5552 5559 5565 5566 5565 5565 5566 5565 5565 5569 5576 5581 5584 5586 5586 5585 5582 5578 5579 5584 5585 5582 5578 5576 5573
5445 5443 5440 5439 5437 5433 5431 5430 5429 5429 5430 5432 5433 5434 5436 5439 5443 5449 5454 5456 5460 5465 5470 5477 5485 5490 5493 5495 5496 5497 5500 5506 5511 5516 5523 5531 5539 5545 5552 5558 5562 5562 5561 5561 5560 5559 5559 5561 5567 5573 5576 5577 5576 5576 5576 5574 5573 5576 5578 5576 5572 5569 5567
5441 5439 5437 5436 5434 5429 5427 5425 5424 5424 5425 5427 5429 5430 5432 5436 5439 5445 5451 5455 5458 5462 5467 5473 5479 5486 5491 5496 5500 5501 5503 5506 5510 5515 5523 5532 5539 5545 5549 5555 5557 5557 5556 5555 5554 5552 5552 5554 5559 5564 5566 5565 5565 5567 5569 5568 5567 5568 5570 5570 5567 5564 5562
5438 5437 5435 5433 5430 5426 5422 5421 5420 5419 5420 5421 5423 5425 5427 5431 5436 5441 5447 5452 5456 5459 5463 5469 5475 5482 5489 5496 5501 5505 5506 5507 5511 5515 5522 5530 5537 5542 5547 5551 5552 5549 5548 5547 5545 5545 5545 5547 5550 5553 5554 5555 5557 5559 5560 5561 5560 5562 5563 5562 5561 5559 5558